Regional Weather Roundup
Issued by NWS

Home | Current Version | Previous Version | Text Only | Print | Product List | Glossary Off
Versions: 1 2 3 4 5 6 7 8 9 10 11 12 13 14 15 16 17 18 19 20 21 22 23 24 25 26 27 28

000
ASUS45 KCYS 160510
RWRWY

WYOMING REGIONAL WEATHER ROUNDUP
NATIONAL WEATHER SERVICE CHEYENNE WY
1100 PM MDT TUE AUG 15 2017

NOTE:  "FAIR" INDICATES FEW OR NO CLOUDS BELOW 12,000 FEET
WITH NO SIGNIFICANT WEATHER AND/OR OBSTRUCTIONS TO VISIBILITY.

WYZ001-160600-
YELLOWSTONE NATIONAL PARK

CITY           SKY/WX    TMP DP  RH WIND       PRES   REMARKS
LK YELLOWSTONE   N/A     41  39  93 CALM      30.21R
W YELLOWSTONE  NOT AVBL

$$
WYZ002>013-054>058-071-098>099-160600-
NORTHERN WYOMING

CITY           SKY/WX    TMP DP  RH WIND       PRES   REMARKS
JACKSON        FAIR      48  37  65 N7        30.13R
CODY           FAIR      59  45  59 SW7       30.04R
GREYBULL       FAIR      62  52  69 SE3       29.97R
WORLAND        FAIR      58  51  78 SW3       29.98R
SHERIDAN       FAIR      52  47  83 SW5       29.97F
BUFFALO        FAIR      55  44  66 W9        30.02F
GILLETTE       FAIR      51  47  86 SW5       29.98S
HULETT         FAIR      55  54  94 S3        29.99S
NEWCASTLE      FAIR      59  48  67 CALM      29.97S

$$
WYZ014>020-022>026-101>103-160600-
CENTRAL WYOMING

CITY           SKY/WX    TMP DP  RH WIND       PRES   REMARKS
BIG PINEY      CLOUDY    50  41  71 N7        30.17R
PINEDALE       FAIR      50  41  71 CALM      30.18S
DUBOIS         FAIR      46  41  81 NW7       30.17R
LANDER           N/A    N/A N/A N/A MISG      30.06S
RIVERTON       FAIR      58  45  62 NW12      30.06S
CASPER         FAIR      52  50  93 CALM      30.06S
DOUGLAS        FAIR      54  52  93 N6        30.04R

$$
WYZ021-027>030-104>119-160600-
SOUTHERN WYOMING

CITY           SKY/WX    TMP DP  RH WIND       PRES   REMARKS
EVANSTON       FAIR      58  30  34 CALM      30.16R
KEMMERER         N/A     54  41  62 CALM      30.18R
FORT BRIDGER   FAIR      54  44  69 NE7       30.19R
ROCK SPRINGS   MOCLDY    53  46  77 NW10      30.15S
RAWLINS        FAIR      49  44  83 SE5       30.14F
SARATOGA       MOCLDY    50  50 100 CALM      30.17S
LARAMIE        FAIR      50  43  77 NW7       30.15R
CHEYENNE       FAIR      56  47  71 N5        30.08S
TORRINGTON     FAIR      59  56  89 CALM      29.96S
PINE BLUFFS    CLOUDY    55  54  94 SW3       30.04F

$$




USA.gov is the U.S. government's official web portal to all federal, state and local government web resources and services.